Regional Weather Roundup
Issued by NWS

Home | Current Version | Previous Version | Graphics & Text | Print | Product List | Glossary On
Versions: 1 2 3 4 5 6 7 8 9 10 11 12 13 14 15 16 17 18 19 20 21 22 23 24 25 26 27 28 29 30 31 32 33 34 35 36 37 38 39 40 41 42 43 44 45 46 47 48 49 50
000
ASUS45 KBOU 251907
RWRCO

WEATHER ROUNDUP FOR COLORADO
NATIONAL WEATHER SERVICE DENVER/BOULDER CO
100 PM MDT TUE JUL 25 2017

NOTE: "FAIR" INDICATES FEW OR NO CLOUDS BELOW 12000 FEET WITH NO
SIGNIFICANT WEATHER AND/OR OBSTRUCTIONS TO VISIBILITY.

COZ001>005-013-030-031-252000-
...NORTHWEST COLORADO...

CITY           SKY/WX    TMP DP  RH WIND       PRES   REMARKS
CRAIG          FAIR      76  55  48 W8        30.24F
HAYDEN         PTSUNNY   73  48  40 NW7       30.26S
MEEKER         CLOUDY    67  62  84 NW9       30.25F
RABBIT EARS PA CLOUDY    57  48  72 CALM      30.55S
STEAMBOAT SPGS PTSUNNY   73  51  45 NW6       30.28S
WALDEN         CLOUDY    70  45  40 NW6       30.36S
$$

COZ006>008-011-252000-
...WEST CENTRAL VALLEYS...

CITY           SKY/WX    TMP DP  RH WIND       PRES   REMARKS
GRAND JUNCTION FAIR      77  60  55 VRB3      30.15F
MONTROSE       FAIR      75  59  57 CALM      30.21F
EAGLE          PTSUNNY   75  54  46 NW6       30.27F
RIFLE          CLOUDY    73  58  59 SE3       30.21F
DELTA          FAIR      84  53  35 SW5       30.17F
NUCLA          FAIR      79  54  41 S5        30.26F
$$

COZ017>023-064>068-252000-
...SOUTHWEST COLORADO...

CITY           SKY/WX    TMP DP  RH WIND       PRES   REMARKS
DURANGO        PTSUNNY   73  57  57 CALM      30.30F
CORTEZ         CLOUDY    77  58  51 SW8       30.24S
PAGOSA SPRINGS CLOUDY    73  52  47 W6        30.38S
TELLURIDE      RAIN      63  54  73 SW3       30.47R
WOLF CREEK PAS DRIZZLE   48  48 100 S12G21    30.72S
$$

COZ009-010-012-014-032>034-037-058>063-252000-
...CENTRAL COLORADO...

CITY           SKY/WX    TMP DP  RH WIND       PRES   REMARKS
ASPEN          CLOUDY    75  51  43 VRB7      30.32F
BUENA VISTA    FAIR      76  49  37 CALM      30.33F
COPPER MTN     PTSUNNY   61  43  51 W5        30.67S
BERTHOUD PASS  PTSUNNY   52  37  58 NW17G30   30.69R
COTTONWOOD PAS FAIR      73  46  38 NW3       30.49F
GUNNISON       FAIR      72  54  53 CALM      30.33F
KREMMLING      CLOUDY    79  50  36 SW7       30.32S
LEADVILLE      CLOUDY    65  45  48 CALM      30.47S
MONARCH PASS   PTSUNNY   55  48  76 W13G24    30.77S
SALIDA         FAIR      82  49  31 SW12G17   30.37S
SUNLIGHT       CLOUDY    55  48  76 S7        30.59S
WILKERSON PASS FAIR      63  45  51 SW8G21    30.63R
$$

COZ069>075-252000-
...SAN LUIS VALLEY/SANGRE DE CRISTO MOUNTAINS...

CITY           SKY/WX    TMP DP  RH WIND       PRES   REMARKS
ALAMOSA        FAIR      77  53  43 VRB3      30.31F
DEL NORTE      PTSUNNY   76  53  45 S7        30.36F
LA VETA PASS   NOT AVBL
SAGUACHE         N/A    N/A N/A N/A MISG        N/A
$$

COZ035-036-038>040-252000-
...NORTHERN COLORADO FRONT RANGE...

CITY           SKY/WX    TMP DP  RH WIND       PRES   REMARKS
DENVER INTL AP PTSUNNY   89  46  22 W15       30.08F
DMNS CITY PARK   N/A     91  49  24 W6G13     30.07F
AURORA         PTSUNNY   87  49  27 SW9       30.11S
FRONT RANGE AP FAIR      90  46  22 W9        30.11S
ERIE MUNI ARPT FAIR      90  42  19 SW3       30.06F
BOULDER MUN AP FAIR      90  46  22 CALM      30.07S
CENTENNIAL     PTSUNNY   83  48  29 SW8       30.13S
BROOMFIELD     FAIR      90  43  19 NW5       30.11F
FORT COLLINS   FAIR      89  47  23 N6        30.07F
LONGMONT       FAIR      91  49  23 NE7       30.07F
$$

COZ041-046-047-076>085-087-088-252000-
...PIKES PEAK/PALMER DIVIDE AND SOUTHERN FOOTHILLS...

CITY           SKY/WX    TMP DP  RH WIND       PRES   REMARKS
COLO. SPRINGS  PTSUNNY   90  52  27 S13G23    30.17F
A. F. ACADEMY  PTSUNNY   84  49  29 CALM      30.18F
SCHRIEVER AFB  FAIR      87  48  25 S7        30.18F
CHEYENNE MTN   PTSUNNY   85  48  27 NE6       30.17F
ELLICOTT       NOT AVBL
FALCON           N/A     87  44  22 CALM      30.24F
FORT CARSON    FAIR      89  51  26 S14G24    30.13F
LIMON          FAIR      88  49  25 VRB3      30.10F
MONUMENT HILL  PTSUNNY   79  50  36 W8        30.26S
CANON CITY     SUNNY     91  55  29 W16G22    30.11S
WALSENBURG     FAIR      93  50  22 W14       30.16F
TRINIDAD       PTSUNNY   87  48  25 SW7       30.15F
$$

COZ042>045-048>051-090-091-252000-
...NORTHEAST COLORADO...

CITY           SKY/WX    TMP DP  RH WIND       PRES   REMARKS
GREELEY ARPT   FAIR      89  56  32 SW6       30.04S
AKRON          FAIR      96  50  20 SW7G18    30.01F
BURLINGTON     FAIR      94  60  32 S15       30.03F
WRAY           NOT AVBL
YUMA           FAIR      93  36  13 S14G21    29.98F
STERLING       FAIR      95  55  26 SW7       29.96F
HOLYOKE        FAIR      99  63  30 SE16      29.96F
FORT MORGAN    FAIR      91  48  22 W8        30.03S
$$

COZ086-089-092>099-252000-
...SOUTHEAST COLORADO...

CITY           SKY/WX    TMP DP  RH WIND       PRES   REMARKS
PUEBLO         FAIR      96  50  20 VRB7      30.04F
LA JUNTA       FAIR      95  52  23 MISG      30.02F
LAMAR          FAIR      98  56  24 S8        29.96F
SPRINGFIELD      N/A     94  59  31 SW18G28   30.05F
$$



USA.gov is the U.S. government's official web portal to all federal, state and local government web resources and services.